Погода в Фёдоровке

Казахстан     53°38′07″N   62°42′13″E
темп.,
°C
ветер,
м/с
пор.,
м/с
влажн.,
%
обл.,
%
осадки,
мм/ч
давл.,
гПа
погр.,
м
2 марта, вт
вт200:00−18зюз129574 0.0 101820
03:00−19юз129970 0.0 101720
06:00−18ююз229870 0.0 101720
09:00−18ююз239776 0.1 101527
12:00−15ююз359575 0.1 1014184
15:00−12ююз479477 0.0 1012286
18:00−13ююз5109386 0.0 1011273
21:00−16ююз6119454 0.0 1010216
3 марта, ср
ср300:00−13ююз7129177 0.0 1009332
03:00−12юз81588100 0.0 1008512
06:00−11юз81691100 0.1 1007555
09:00−7юз8159399 0.6 1005700
12:00−5юз9149199 0.9 1005763
15:00−3юз81390100 0.2 1004852
18:00−2юз71294100 0.4 1003776
21:00−2юз61395100 0.4 1003629
4 марта, чт
чт400:00−2ююз61294100 0.6 1003536
03:00−2юз61196100 0.3 1001495
06:00−2юз51097100 1.0 1001471
09:00−3зюз4896100 0.5 1000309
12:00−5з5987100 0.6 1001383
15:00−6з598760 0.0 1002477
18:00−6з598631 0.0 1004229
21:00−9зюз512827 0.0 1007213
5 марта, пт
пт500:00−10зюз612853 0.0 1009247
03:00−10юз7158751 0.0 1008422
06:00−9юз8168655 0.0 1007633
09:00−4юз10188399 0.1 1005875
12:00−2юз12198299 0.2 10041095
15:000юз111980100 0.0 10041218
18:00−1юз111984100 0.0 10061153
21:00−1юз101783100 0.0 1006904
6 марта, сб
сб600:00−2юз8178592 0.0 1008593
03:00−2з6119396 0.1 1009423
06:00−6зсз459297 0.2 101298
09:00−11зсз338938 0.0 101425
12:00−10з238931 0.0 101590
15:00−8ююз2485100 0.0 1015242
18:00−8ююв369195 0.0 1013136
21:00−3ююв71496100 0.4 1009536